Barnwell, SC

12:07 PM EST on November 18, 2019 (GMT -0500)
Barnwell County

Weather History for KBNL - September, 2019

Change the Weather History Date:

Wednesday, September 25, 2019

  Actual Average (WUND) Record (WUND)
Temperature  
Mean Temperature 82 °F -  
Max Temperature 96 °F - - (-1)
Min Temperature 68 °F - - (-1)
Cooling Degree Days 17    
Growing Degree Days 32 (Base 50)    
Moisture  
Dew Point 66 °F    
Average Humidity 63    
Maximum Humidity 94    
Minimum Humidity 27    
Precipitation  
Precipitation 0.00 in - - ()
Sea Level Pressure  
Sea Level Pressure 29.87 in    
Wind  
Wind Speed 2 mph (South)    
Max Wind Speed 10 mph    
Max Gust Speed 15 mph    
Averages and records for this station are not official NWS values.
T = Trace of Precipitation, MM = Missing Value Source: NWS Daily Summary

Daily Weather History Graph

Daily Weather History Graph

Search for Another Location

Airport or City:

Astronomy

Sep. 25, 2019 Rise Set
Actual Time 7:15 AM EDT 7:18 PM EDT
Civil Twilight 6:50 AM EDT 7:43 PM EDT
Nautical Twilight 6:22 AM EDT 8:11 PM EDT
Astronomical Twilight 5:52 AM EDT 8:40 PM EDT
Moon 3:23 AM EDT (9/25) 5:35 PM EDT (9/25)
Length of Visible Light 12h 52m
Length of Day
12h 02m
Waning Crescent, 14% of the Moon is Illuminated
Sep 25
Waning Crescent
Sep 28
New
Oct 5
First Quarter
Oct 13
Full
Oct 21
Last Quarter

Hourly Weather History & Observations

Time (EDT) Temp. Heat Index Dew Point Humidity Pressure Visibility Wind Dir Wind Speed Gust Speed Precip Events Conditions
12:15 AM 77.0 °F - 66.2 °F 69% 29.87 in - SSE 3.5 mph - N/A   Scattered Clouds
12:35 AM 75.2 °F - 66.2 °F 73% 29.87 in - SE 4.6 mph - N/A   Scattered Clouds
12:55 AM 75.2 °F - 66.2 °F 73% 29.87 in - Calm Calm - N/A   Mostly Cloudy
1:15 AM 75.2 °F - 64.4 °F 69% 29.87 in - SSE 4.6 mph - N/A   Mostly Cloudy
1:35 AM 75.2 °F - 64.4 °F 69% 29.86 in - SSE 3.5 mph - N/A   Mostly Cloudy
1:55 AM 75.2 °F - 64.4 °F 69% 29.86 in - Calm Calm - N/A   Scattered Clouds
2:15 AM 75.2 °F - 64.4 °F 69% 29.85 in - SE 4.6 mph - N/A   Clear
2:35 AM 75.2 °F - 64.4 °F 69% 29.84 in - SSE 4.6 mph - N/A   Clear
2:55 AM 75.2 °F - 64.4 °F 69% 29.84 in - Calm Calm - N/A   Clear
3:15 AM 71.6 °F - 64.4 °F 78% 29.84 in - Calm Calm - N/A   Clear
3:35 AM 71.6 °F - 64.4 °F 78% 29.84 in - Calm Calm - N/A   Clear
3:55 AM 71.6 °F - 64.4 °F 78% 29.84 in - Calm Calm - N/A   Clear
4:15 AM 69.8 °F - 64.4 °F 83% 29.84 in - Calm Calm - N/A   Scattered Clouds
4:35 AM 69.8 °F - 64.4 °F 83% 29.84 in - Calm Calm - N/A   Mostly Cloudy
4:55 AM 69.8 °F - 64.4 °F 83% 29.85 in - Calm Calm - N/A   Mostly Cloudy
5:15 AM 69.8 °F - 64.4 °F 83% 29.85 in - Calm Calm - N/A   Partly Cloudy
5:35 AM 68.0 °F - 64.4 °F 88% 29.86 in - Calm Calm - N/A   Mostly Cloudy
5:55 AM 68.0 °F - 66.2 °F 94% 29.86 in - Calm Calm - N/A   Unknown
6:15 AM 69.8 °F - 66.2 °F 88% 29.87 in - Calm Calm - N/A   Mostly Cloudy
6:35 AM 69.8 °F - 66.2 °F 88% 29.88 in - Calm Calm - N/A   Mostly Cloudy
6:55 AM 68.0 °F - 66.2 °F 94% 29.88 in - Calm Calm - N/A   Unknown
7:15 AM 68.0 °F - 64.4 °F 88% 29.89 in - Calm Calm - N/A   Unknown
7:35 AM 68.0 °F - 64.4 °F 88% 29.90 in - Calm Calm - N/A   Unknown
7:55 AM 68.0 °F - 66.2 °F 94% 29.90 in - ENE 3.5 mph - N/A   Mostly Cloudy
8:15 AM 69.8 °F - 66.2 °F 88% 29.90 in - Calm Calm - N/A   Unknown
8:35 AM 71.6 °F - 68.0 °F 88% 29.91 in - Calm Calm - N/A   Clear
8:55 AM 75.2 °F - 68.0 °F 78% 29.91 in - Calm Calm - N/A   Partly Cloudy
9:15 AM 75.2 °F - 69.8 °F 83% 29.91 in - Calm Calm - N/A   Partly Cloudy
9:35 AM 77.0 °F - 69.8 °F 78% 29.91 in - Calm Calm - N/A   Partly Cloudy
9:55 AM 78.8 °F - 69.8 °F 74% 29.92 in - Calm Calm - N/A   Clear
10:15 AM 80.6 °F 83.9 °F 69.8 °F 70% 29.92 in - Calm Calm - N/A   Clear
10:35 AM 82.4 °F 86.3 °F 69.8 °F 66% 29.92 in - Calm Calm - N/A   Clear
10:55 AM 84.2 °F 88.4 °F 69.8 °F 62% 29.92 in - Calm Calm - N/A   Clear
11:15 AM 86.0 °F 90.4 °F 69.8 °F 58% 29.92 in - Calm Calm - N/A   Clear
11:35 AM 86.0 °F 89.4 °F 68.0 °F 55% 29.92 in - Calm Calm - N/A   Clear
11:55 AM 89.6 °F 93.4 °F 68.0 °F 49% 29.91 in - Calm Calm - N/A   Clear
12:15 PM 89.6 °F 93.4 °F 68.0 °F 49% 29.91 in - Variable 4.6 mph - N/A   Clear
12:35 PM 89.6 °F 93.4 °F 68.0 °F 49% 29.89 in - SE 5.8 mph 15.0 mph N/A   Clear
12:55 PM 93.2 °F 96.2 °F 66.2 °F 41% 29.89 in - West 4.6 mph - N/A   Clear
1:15 PM 93.2 °F 94.9 °F 64.4 °F 38% 29.88 in - Variable 3.5 mph 11.5 mph N/A   Scattered Clouds
1:35 PM 95.0 °F 97.0 °F 64.4 °F 36% 29.87 in - WSW 6.9 mph - N/A   Partly Cloudy
1:55 PM 95.0 °F 96.0 °F 62.6 °F 34% 29.86 in - Calm Calm - N/A   Scattered Clouds
2:15 PM 95.0 °F 98.5 °F 66.2 °F 39% 29.85 in - SW 6.9 mph - N/A   Partly Cloudy
2:35 PM 93.2 °F 94.9 °F 64.4 °F 38% 29.84 in - Calm Calm - N/A   Partly Cloudy
2:55 PM 95.0 °F 96.0 °F 62.6 °F 34% 29.83 in - SW 10.4 mph - N/A   Scattered Clouds
3:15 PM 96.8 °F 97.1 °F 60.8 °F 30% 29.83 in - Calm Calm - N/A   Partly Cloudy
3:35 PM 95.0 °F 95.2 °F 60.8 °F 32% 29.82 in - West 6.9 mph - N/A   Scattered Clouds
3:55 PM 96.8 °F 97.1 °F 60.8 °F 30% 29.82 in - WSW 6.9 mph - N/A   Mostly Cloudy
4:15 PM 96.8 °F 97.1 °F 60.8 °F 30% 29.82 in - WSW 8.1 mph - N/A   Mostly Cloudy
4:35 PM 96.8 °F 96.2 °F 59.0 °F 28% 29.81 in - Calm Calm - N/A   Partly Cloudy
5:15 PM 96.8 °F 95.8 °F 57.2 °F 27% 29.82 in - WNW 4.6 mph - N/A   Clear
5:35 PM 96.8 °F 95.8 °F 57.2 °F 27% 29.82 in - WNW 3.5 mph - N/A   Clear
5:55 PM 95.0 °F 94.4 °F 59.0 °F 30% 29.82 in - WNW 6.9 mph - N/A   Clear
6:15 PM 93.2 °F 92.6 °F 59.0 °F 32% 29.83 in - West 4.6 mph - N/A   Clear
6:35 PM 93.2 °F 91.9 °F 57.2 °F 30% 29.83 in - WNW 4.6 mph - N/A   Clear
6:55 PM 91.4 °F 89.9 °F 57.2 °F 31% 29.83 in - WNW 4.6 mph - N/A   Clear
7:15 PM 89.6 °F 88.1 °F 57.2 °F 33% 29.83 in - Calm Calm - N/A   Clear
7:35 PM 87.8 °F 87.1 °F 59.0 °F 38% 29.83 in - Calm Calm - N/A   Clear
7:55 PM 82.4 °F 82.9 °F 60.8 °F 48% 29.84 in - Calm Calm - N/A   Clear
8:15 PM 84.2 °F 88.4 °F 69.8 °F 62% 29.85 in - ESE 10.4 mph - N/A   Clear
8:35 PM 84.2 °F 89.6 °F 71.6 °F 66% 29.86 in - SE 9.2 mph - N/A   Clear
8:55 PM 82.4 °F 87.2 °F 71.6 °F 70% 29.87 in - SE 6.9 mph - N/A   Clear
9:15 PM 82.4 °F 87.2 °F 71.6 °F 70% 29.88 in - SE 6.9 mph - N/A   Clear
9:35 PM 82.4 °F 87.2 °F 71.6 °F 70% 29.89 in - ESE 6.9 mph - N/A   Clear
9:55 PM 80.6 °F 85.4 °F 73.4 °F 79% 29.89 in - SE 6.9 mph - N/A   Clear
10:15 PM 80.6 °F 85.4 °F 73.4 °F 79% 29.90 in - SSE 5.8 mph - N/A   Clear
10:35 PM 78.8 °F - 73.4 °F 83% 29.90 in - ESE 3.5 mph - N/A   Clear
10:55 PM 78.8 °F - 73.4 °F 83% 29.90 in - SE 4.6 mph - N/A   Clear
11:15 PM 77.0 °F - 73.4 °F 89% 29.91 in - Calm Calm - N/A   Partly Cloudy
11:35 PM 77.0 °F - 73.4 °F 89% 29.91 in - SE 4.6 mph - N/A   Clear
11:55 PM 77.0 °F - 73.4 °F 89% 29.91 in - SE 5.8 mph - N/A   Unknown